Weather in Frontera

Spain     27°45′27″N   18°00′22″W
temp.,
°C
wind,
m/s
gust,
m/s
humid.,
%
clouds,
%
prec.,
mm/h
press.,
hPa
HPBL,
m
6 may, thu
thu601:00+19ne910691 0.0 10201004
04:00+19nne810702 0.0 10191095
07:00+19ne11117217 0.0 10181120
10:00+19ene89723 0.0 1020888
13:00+19ene336769 0.0 1021864
16:00+20ne55683 0.0 1019764
19:00+20ne67704 0.0 1019807
22:00+20ne810730 0.0 1020789
7 may, fri
fri701:00+19ne88745 0.0 1020839
04:00+19ne997516 0.0 1019854
07:00+19ne777334 0.0 1019928
10:00+19ne677112 0.0 1020931
13:00+20nne67702 0.0 1020885
16:00+20n55703 0.0 1019833
19:00+20n44711 0.0 1018753
22:00+20nne677411 0.0 1019892
8 may, sat
sat801:00+20n666889 0.0 10191160
04:00+19n5771100 0.1 1018876
07:00+19nne5669100 0.2 1018947
10:00+19n5667100 0.1 1019944
13:00+20nne566353 0.1 10191174
16:00+20n66642 0.0 10181081
19:00+20n777019 0.0 10181031
22:00+20n787116 0.0 10191053
9 may, sun
sun901:00+20n57680 0.0 1019952
04:00+19n56690 0.0 1018798
07:00+20n56720 0.0 1017736
10:00+20n45720 0.0 1018621
13:00+20n34734 0.0 1019544
16:00+20n33760 0.0 1018495
19:00+21n348011 0.0 1017492
22:00+21n34854 0.0 1018408
10 may, mon
mon1001:00+20nne458736 0.1 1019419
04:00+20nne668360 0.1 1018496
07:00+20ne78810 0.1 1018602
10:00+20nne68800 0.0 1019614
13:00+20ne910821 0.0 1020688
16:00+20ne66781 0.0 1019680
19:00+20ne89810 0.0 1019733
22:00+20ne810800 0.0 1020755